Time,TemperatureF,DewpointF,PressureIn,WindDirection,WindDirectionDegrees,WindSpeedMPH,WindSpeedGustMPH,Humidity,HourlyPrecipIn,Conditions,Clouds,dailyrainin,SoftwareType,DateUTC
2013-07-25 00:06:00,82.8,72.0,29.97,East,96,4.0,7.0,70,0.00,,,0.00,weatherlink.com 1.10,2013-07-25 05:06:00,
2013-07-25 00:22:00,82.5,72.0,29.97,East,84,2.0,4.0,71,0.00,,,0.00,weatherlink.com 1.10,2013-07-25 05:22:00,
2013-07-25 00:37:00,82.4,73.0,29.97,ENE,67,4.0,4.0,72,0.00,,,0.00,weatherlink.com 1.10,2013-07-25 05:37:00,
2013-07-25 00:52:00,81.9,72.0,29.97,East,86,4.0,6.0,71,0.00,,,0.00,weatherlink.com 1.10,2013-07-25 05:52:00,
2013-07-25 01:07:00,81.4,72.0,29.96,East,97,2.0,6.0,72,0.00,,,0.00,weatherlink.com 1.10,2013-07-25 06:07:00,
2013-07-25 01:22:00,81.1,72.0,29.97,East,87,4.0,5.0,73,0.00,,,0.00,weatherlink.com 1.10,2013-07-25 06:22:00,
2013-07-25 01:37:00,80.7,71.0,29.96,East,90,2.0,5.0,73,0.00,,,0.00,weatherlink.com 1.10,2013-07-25 06:37:00,
2013-07-25 01:52:00,80.4,71.0,29.96,East,81,5.0,7.0,73,0.00,,,0.00,weatherlink.com 1.10,2013-07-25 06:52:00,
2013-07-25 02:07:00,80.0,71.0,29.96,East,84,4.0,5.0,74,0.00,,,0.00,weatherlink.com 1.10,2013-07-25 07:07:00,
2013-07-25 02:22:00,79.7,71.0,29.97,East,99,2.0,6.0,74,0.00,,,0.00,weatherlink.com 1.10,2013-07-25 07:22:00,
2013-07-25 02:37:00,79.5,71.0,29.96,ESE,103,2.0,4.0,75,0.00,,,0.00,weatherlink.com 1.10,2013-07-25 07:37:00,
2013-07-25 02:52:00,79.1,71.0,29.97,East,79,3.0,5.0,76,0.00,,,0.00,weatherlink.com 1.10,2013-07-25 07:52:00,
2013-07-25 03:07:00,78.9,71.0,29.96,ENE,71,3.0,6.0,76,0.00,,,0.00,weatherlink.com 1.10,2013-07-25 08:07:00,
2013-07-25 03:22:00,78.6,71.0,29.97,ESE,108,2.0,5.0,77,0.00,,,0.00,weatherlink.com 1.10,2013-07-25 08:22:00,
2013-07-25 03:37:00,78.3,71.0,29.97,East,87,2.0,5.0,77,0.00,,,0.00,weatherlink.com 1.10,2013-07-25 08:37:00,
2013-07-25 03:52:00,77.9,71.0,29.97,East,93,2.0,3.0,79,0.00,,,0.00,weatherlink.com 1.10,2013-07-25 08:52:00,
2013-07-25 04:07:00,77.9,71.0,29.97,East,82,2.0,4.0,78,0.00,,,0.00,weatherlink.com 1.10,2013-07-25 09:07:00,
2013-07-25 04:22:00,77.8,70.0,29.97,East,94,3.0,5.0,78,0.00,,,0.00,weatherlink.com 1.10,2013-07-25 09:22:00,
2013-07-25 04:37:00,77.0,72.0,29.97,East,96,2.0,4.0,83,0.00,,,0.00,weatherlink.com 1.10,2013-07-25 09:37:00,
2013-07-25 04:52:00,74.5,72.0,29.97,East,91,3.0,4.0,91,0.00,,,0.00,weatherlink.com 1.10,2013-07-25 09:52:00,
2013-07-25 05:07:00,74.2,72.0,29.97,ESE,103,3.0,4.0,91,0.00,,,0.00,weatherlink.com 1.10,2013-07-25 10:07:00,
2013-07-25 05:22:00,74.4,72.0,29.98,East,79,2.0,4.0,91,0.00,,,0.00,weatherlink.com 1.10,2013-07-25 10:22:00,
2013-07-25 05:37:00,74.3,72.0,29.99,ESE,105,1.0,2.0,92,0.00,,,0.00,weatherlink.com 1.10,2013-07-25 10:37:00,
2013-07-25 05:52:00,74.3,72.0,29.99,ESE,118,3.0,3.0,92,0.00,,,0.00,weatherlink.com 1.10,2013-07-25 10:52:00,
2013-07-25 06:07:00,74.3,72.0,29.99,SE,132,0.0,2.0,92,0.00,,,0.00,weatherlink.com 1.10,2013-07-25 11:07:00,
2013-07-25 06:22:00,74.6,72.0,30.00,East,94,1.0,3.0,91,0.00,,,0.00,weatherlink.com 1.10,2013-07-25 11:22:00,
2013-07-25 06:37:00,76.1,71.0,30.00,ESE,103,1.0,3.0,85,0.00,,,0.00,weatherlink.com 1.10,2013-07-25 11:37:00,
2013-07-25 06:52:00,76.7,71.0,30.00,ESE,121,2.0,3.0,81,0.00,,,0.00,weatherlink.com 1.10,2013-07-25 11:52:00,
2013-07-25 07:07:00,77.2,71.0,30.01,ESE,107,2.0,4.0,80,0.00,,,0.00,weatherlink.com 1.10,2013-07-25 12:07:00,
2013-07-25 07:22:00,77.5,71.0,30.00,East,81,2.0,3.0,79,0.00,,,0.00,weatherlink.com 1.10,2013-07-25 12:22:00,
2013-07-25 07:37:00,78.0,71.0,30.00,ESE,122,2.0,4.0,78,0.00,,,0.00,weatherlink.com 1.10,2013-07-25 12:37:00,
2013-07-25 07:52:00,78.4,71.0,30.00,ESE,123,3.0,4.0,77,0.00,,,0.00,weatherlink.com 1.10,2013-07-25 12:52:00,
2013-07-25 08:07:00,79.0,71.0,30.01,ESE,105,1.0,4.0,77,0.00,,,0.00,weatherlink.com 1.10,2013-07-25 13:07:00,
2013-07-25 08:22:00,79.9,71.0,30.01,ESE,108,5.0,8.0,75,0.00,,,0.00,weatherlink.com 1.10,2013-07-25 13:22:00,
2013-07-25 08:37:00,80.3,71.0,30.01,SE,134,4.0,7.0,74,0.00,,,0.00,weatherlink.com 1.10,2013-07-25 13:37:00,
2013-07-25 08:52:00,81.5,72.0,30.01,East,101,3.0,7.0,73,0.00,,,0.00,weatherlink.com 1.10,2013-07-25 13:52:00,
2013-07-25 09:07:00,81.8,72.0,30.01,East,100,3.0,7.0,73,0.00,,,0.00,weatherlink.com 1.10,2013-07-25 14:07:00,
2013-07-25 09:22:00,82.1,73.0,30.01,East,89,5.0,6.0,73,0.00,,,0.00,weatherlink.com 1.10,2013-07-25 14:22:00,
2013-07-25 09:38:00,83.0,73.0,30.02,ESE,118,3.0,6.0,72,0.00,,,0.00,weatherlink.com 1.10,2013-07-25 14:38:00,
2013-07-25 09:53:00,83.9,73.0,30.02,East,86,4.0,7.0,70,0.00,,,0.00,weatherlink.com 1.10,2013-07-25 14:53:00,
2013-07-25 10:08:00,84.7,73.0,30.02,ENE,72,5.0,7.0,69,0.00,,,0.00,weatherlink.com 1.10,2013-07-25 15:08:00,
2013-07-25 10:23:00,85.1,73.0,30.02,East,82,4.0,7.0,68,0.00,,,0.00,weatherlink.com 1.10,2013-07-25 15:23:00,
2013-07-25 10:38:00,85.0,74.0,30.02,ESE,109,1.0,6.0,70,0.00,,,0.00,weatherlink.com 1.10,2013-07-25 15:38:00,
2013-07-25 10:53:00,85.4,74.0,30.02,ENE,76,3.0,8.0,68,0.00,,,0.00,weatherlink.com 1.10,2013-07-25 15:53:00,
2013-07-25 11:08:00,86.1,73.0,30.02,ENE,70,5.0,7.0,66,0.00,,,0.00,weatherlink.com 1.10,2013-07-25 16:08:00,
2013-07-25 11:23:00,87.6,74.0,30.03,NE,37,2.0,6.0,64,0.00,,,0.00,weatherlink.com 1.10,2013-07-25 16:23:00,
2013-07-25 11:38:00,87.8,74.0,30.03,ENE,64,4.0,6.0,64,0.00,,,0.00,weatherlink.com 1.10,2013-07-25 16:38:00,
2013-07-25 11:53:00,88.2,75.0,30.04,ENE,70,0.0,5.0,64,0.00,,,0.00,weatherlink.com 1.10,2013-07-25 16:53:00,
2013-07-25 12:08:00,88.8,74.0,30.04,NNW,345,3.0,5.0,62,0.00,,,0.00,weatherlink.com 1.10,2013-07-25 17:08:00,
2013-07-25 12:23:00,89.0,74.0,30.04,WNW,283,2.0,6.0,61,0.00,,,0.00,weatherlink.com 1.10,2013-07-25 17:23:00,
2013-07-25 12:38:00,90.0,74.0,30.04,NNE,19,3.0,6.0,60,0.00,,,0.00,weatherlink.com 1.10,2013-07-25 17:38:00,
2013-07-25 12:53:00,91.6,74.0,30.03,East,98,2.0,6.0,56,0.00,,,0.00,weatherlink.com 1.10,2013-07-25 17:53:00,
2013-07-25 13:08:00,92.5,72.0,30.03,ENE,67,3.0,5.0,52,0.00,,,0.00,weatherlink.com 1.10,2013-07-25 18:08:00,
2013-07-25 13:23:00,94.0,73.0,30.03,NNE,13,2.0,4.0,50,0.00,,,0.00,weatherlink.com 1.10,2013-07-25 18:23:00,
2013-07-25 13:38:00,93.9,73.0,30.02,West,281,1.0,3.0,50,0.00,,,0.00,weatherlink.com 1.10,2013-07-25 18:38:00,
2013-07-25 13:53:00,94.0,73.0,30.01,NW,312,3.0,6.0,50,0.00,,,0.00,weatherlink.com 1.10,2013-07-25 18:53:00,
2013-07-25 14:08:00,93.1,73.0,30.01,NNE,13,1.0,5.0,52,0.00,,,0.00,weatherlink.com 1.10,2013-07-25 19:08:00,
2013-07-25 14:23:00,93.5,73.0,30.01,ENE,65,3.0,7.0,52,0.00,,,0.00,weatherlink.com 1.10,2013-07-25 19:23:00,
2013-07-25 14:38:00,93.9,73.0,30.01,East,82,3.0,7.0,50,0.00,,,0.00,weatherlink.com 1.10,2013-07-25 19:38:00,
2013-07-25 14:53:00,93.9,73.0,30.00,NE,44,4.0,7.0,50,0.00,,,0.00,weatherlink.com 1.10,2013-07-25 19:53:00,
2013-07-25 15:08:00,94.6,73.0,30.00,ENE,75,3.0,7.0,49,0.00,,,0.00,weatherlink.com 1.10,2013-07-25 20:08:00,
2013-07-25 15:23:00,94.8,72.0,29.99,ENE,75,3.0,7.0,48,0.00,,,0.00,weatherlink.com 1.10,2013-07-25 20:23:00,
2013-07-25 15:38:00,94.3,72.0,29.98,ESE,111,4.0,9.0,49,0.00,,,0.00,weatherlink.com 1.10,2013-07-25 20:38:00,
2013-07-25 15:53:00,94.8,72.0,29.98,ENE,72,5.0,9.0,48,0.00,,,0.00,weatherlink.com 1.10,2013-07-25 20:53:00,
2013-07-25 16:08:00,95.0,73.0,29.97,East,95,6.0,10.0,49,0.00,,,0.00,weatherlink.com 1.10,2013-07-25 21:08:00,
2013-07-25 16:23:00,95.0,72.0,29.96,East,82,8.0,11.0,48,0.00,,,0.00,weatherlink.com 1.10,2013-07-25 21:23:00,
2013-07-25 16:38:00,95.2,72.0,29.96,ESE,104,3.0,9.0,47,0.00,,,0.00,weatherlink.com 1.10,2013-07-25 21:38:00,
2013-07-25 16:53:00,94.3,72.0,29.97,East,97,5.0,11.0,48,0.00,,,0.00,weatherlink.com 1.10,2013-07-25 21:53:00,
2013-07-25 17:08:00,94.4,72.0,29.97,ESE,103,3.0,8.0,49,0.00,,,0.00,weatherlink.com 1.10,2013-07-25 22:08:00,
2013-07-25 17:24:00,95.5,73.0,29.97,SSE,148,1.0,7.0,48,0.00,,,0.00,weatherlink.com 1.10,2013-07-25 22:24:00,
2013-07-25 17:39:00,96.2,72.0,29.96,East,98,3.0,6.0,45,0.00,,,0.00,weatherlink.com 1.10,2013-07-25 22:39:00,
2013-07-25 17:54:00,95.2,71.0,29.96,ENE,75,5.0,7.0,46,0.00,,,0.00,weatherlink.com 1.10,2013-07-25 22:54:00,
2013-07-25 18:09:00,95.0,71.0,29.95,East,98,6.0,10.0,45,0.00,,,0.00,weatherlink.com 1.10,2013-07-25 23:09:00,
2013-07-25 18:24:00,95.8,71.0,29.95,ENE,73,7.0,7.0,45,0.00,,,0.00,weatherlink.com 1.10,2013-07-25 23:24:00,
2013-07-25 18:39:00,95.4,72.0,29.95,ENE,70,5.0,7.0,46,0.00,,,0.00,weatherlink.com 1.10,2013-07-25 23:39:00,
2013-07-25 18:54:00,91.6,70.0,29.96,SSE,167,5.0,16.0,50,0.00,,,0.00,weatherlink.com 1.10,2013-07-25 23:54:00,
2013-07-25 19:09:00,89.0,67.0,29.97,SSE,152,8.0,13.0,49,0.00,,,0.00,weatherlink.com 1.10,2013-07-26 00:09:00,
2013-07-25 19:24:00,87.5,68.0,29.97,SSW,210,6.0,17.0,52,0.00,,,0.00,weatherlink.com 1.10,2013-07-26 00:24:00,
2013-07-25 19:39:00,87.5,67.0,29.96,SW,229,7.0,11.0,51,0.00,,,0.00,weatherlink.com 1.10,2013-07-26 00:39:00,
2013-07-25 19:54:00,86.8,67.0,29.96,South,188,4.0,10.0,51,0.00,,,0.00,weatherlink.com 1.10,2013-07-26 00:54:00,
2013-07-25 20:09:00,87.2,67.0,29.95,SE,127,3.0,6.0,52,0.00,,,0.00,weatherlink.com 1.10,2013-07-26 01:09:00,
2013-07-25 20:24:00,87.4,68.0,29.96,SE,136,3.0,6.0,53,0.00,,,0.00,weatherlink.com 1.10,2013-07-26 01:24:00,
2013-07-25 20:39:00,87.0,69.0,29.96,SE,135,1.0,6.0,55,0.00,,,0.00,weatherlink.com 1.10,2013-07-26 01:39:00,
2013-07-25 20:54:00,87.0,70.0,29.96,SE,131,3.0,4.0,58,0.00,,,0.00,weatherlink.com 1.10,2013-07-26 01:54:00,
2013-07-25 21:09:00,87.2,71.0,29.97,SE,124,2.0,4.0,59,0.00,,,0.00,weatherlink.com 1.10,2013-07-26 02:09:00,
2013-07-25 21:24:00,87.1,72.0,29.98,ESE,107,4.0,4.0,61,0.00,,,0.00,weatherlink.com 1.10,2013-07-26 02:24:00,
2013-07-25 21:39:00,87.5,72.0,29.98,ESE,111,2.0,3.0,61,0.00,,,0.00,weatherlink.com 1.10,2013-07-26 02:39:00,
2013-07-25 21:54:00,87.9,72.0,29.99,SE,141,3.0,4.0,60,0.00,,,0.00,weatherlink.com 1.10,2013-07-26 02:54:00,
2013-07-25 22:09:00,87.8,72.0,29.99,SE,131,6.0,7.0,60,0.00,,,0.00,weatherlink.com 1.10,2013-07-26 03:09:00,
2013-07-25 22:24:00,87.4,72.0,29.98,SSE,153,7.0,9.0,61,0.00,,,0.00,weatherlink.com 1.10,2013-07-26 03:24:00,
2013-07-25 22:39:00,87.1,72.0,29.97,SE,131,6.0,10.0,61,0.00,,,0.00,weatherlink.com 1.10,2013-07-26 03:39:00,
2013-07-25 22:54:00,86.8,72.0,29.97,SSE,153,6.0,12.0,61,0.00,,,0.00,weatherlink.com 1.10,2013-07-26 03:54:00,
2013-07-25 23:09:00,86.6,72.0,29.97,SSE,160,7.0,8.0,61,0.00,,,0.00,weatherlink.com 1.10,2013-07-26 04:09:00,
2013-07-25 23:24:00,86.4,71.0,29.97,SE,142,5.0,10.0,61,0.00,,,0.00,weatherlink.com 1.10,2013-07-26 04:24:00,
2013-07-25 23:39:00,86.1,72.0,29.98,SE,142,4.0,11.0,62,0.00,,,0.00,weatherlink.com 1.10,2013-07-26 04:39:00,
2013-07-25 23:54:00,85.9,71.0,29.98,SE,132,4.0,-999.0,62,-99.99,,,0.00,weatherlink.com 1.10,2013-07-26 04:54:00,